Content
SEND FEEDBACK

Daily
Averages
Monthly
Summary
United States of America

SAN FRANCISCO, CALIFORNIA


Home > North America > United States > California
Elevation: 128 feet     Latitude: 37 46N     Longitude: 122 26W

WEATHER
 
SELECT A DAY
Number of Records: 183,022;   Date Range: 1/1/95 - 4/17/14
 
SHARE

PRINT THIS DATA

[ ← Previous Day ]
WEATHER ALMANAC - JANUARY 6, 2013
[ Next Day → ]
[ °C ]   °F
Weather ElementAverageHighLow
Temperature48.2 °F51.1 °F (1:56 pm)46.4 °F (1:29 am)
Dewpoint42.3 °F44.1 °F (8:56 pm)41 °F (7:36 am)
Humidity80.1 %87 % (1:29 am)68 % (3:56 pm)
Barometer30.14 in30.20 in (9:56 am)30.05 in (1:29 am)
Wind Speed10 mph24.2 mph (2:45 am)
Weather ElementAverage
Visibility9.8 mi
Wind DirectionSSW (202.7 °)

Weather ElementTotal
Precipitation---
Heating Degree Days16.3 (Base 65)
Averaged from 33 records on January 6, 2013
WEATHER CONDITIONS BREAKOUT
WIND DIRECTION BREAKOUT
WEATHER BY HOUR - JANUARY 6, 2013
[ °C ]   °F
Local TimeTemperatureDewpointHumidityBarometerVisibilityWind DirectionWind SpeedGust SpeedPrecipitationEventsConditions
1:29 AM46.4 °F42.8 °F87 %30.05 in10.0 miENE (60°)21.9 mph0.00 inOvercast
1:52 AM46.4 °F42.8 °F87 %30.06 in10.0 miENE (60°)23.0 mph0.00 inRainLight Rain
1:56 AM46.9 °F43.0 °F86 %30.06 in10.0 miENE (60°)21.9 mph0.00 inRainLight Rain
2:31 AM46.4 °F42.8 °F87 %30.06 in10.0 miNE (50°)21.9 mph0.00 inOvercast
2:45 AM46.4 °F42.8 °F87 %30.07 in10.0 miNE (50°)24.2 mph0.00 inOvercast
2:56 AM46.9 °F42.1 °F83 %30.07 in9.0 miNE (50°)23.0 mph0.00 inRainLight Rain
3:47 AM46.4 °F42.8 °F87 %30.08 in10.0 miNNE (30°)19.6 mph0.00 inOvercast
3:56 AM46.9 °F42.1 °F83 %30.09 in10.0 miNNE (30°)19.6 mph0.00 inOvercast
4:56 AM46.9 °F43.0 °F86 %30.11 in4.0 miNorth (350°)12.7 mph0.00 inRainLight Rain
5:18 AM48.2 °F42.8 °F82 %30.12 in10.0 miNorth (350°)11.5 mph0.00 inOvercast
5:52 AM48.2 °F42.8 °F82 %30.13 in10.0 miNorth (350°)13.8 mph0.00 inOvercast
5:56 AM48.0 °F42.1 °F80 %30.13 in10.0 miNorth (350°)17.3 mph0.00 inOvercast
6:56 AM46.9 °F42.1 °F83 %30.15 in10.0 miNNW (330°)4.6 mph0.00 inOvercast
7:36 AM46.4 °F41.0 °F81 %30.14 in10.0 miCalmOvercast
7:56 AM48.0 °F41.0 °F77 %30.15 in10.0 miNNW (330°)3.5 mphOvercast
8:56 AM48.0 °F42.1 °F80 %30.18 in10.0 miWNW (300°)4.6 mphOvercast
9:30 AM48.2 °F41.0 °F76 %30.19 in10.0 miNW (310°)5.8 mphOvercast
9:56 AM48.0 °F42.1 °F80 %30.20 in10.0 miNorth (350°)6.9 mphOvercast
10:19 AM48.2 °F41.0 °F76 %30.20 in10.0 miNorth (360°)5.8 mphOvercast
10:56 AM48.9 °F41.0 °F74 %30.19 in10.0 miNorth (350°)6.9 mphOvercast
11:56 AM50.0 °F42.1 °F74 %30.17 in10.0 miNNE (20°)8.1 mphMostly Cloudy
12:56 PM50.0 °F42.1 °F74 %30.16 in10.0 miNNE (20°)4.6 mphOvercast
1:56 PM51.1 °F42.1 °F71 %30.16 in10.0 miNNE (20°)5.8 mphMostly Cloudy
2:56 PM51.1 °F42.1 °F71 %30.17 in10.0 miNNE (30°)5.8 mphOvercast
3:56 PM51.1 °F41.0 °F68 %30.17 in10.0 miNorth (350°)5.8 mphOvercast
4:56 PM50.0 °F41.0 °F71 %30.17 in10.0 miNW (320°)3.5 mphMostly Cloudy
5:56 PM48.9 °F41.0 °F74 %30.17 in10.0 miCalmScattered Clouds
6:56 PM48.9 °F42.1 °F77 %30.17 in10.0 miWest (280°)6.9 mphPartly Cloudy
7:56 PM48.9 °F43.0 °F80 %30.18 in10.0 miWNW (300°)4.6 mphPartly Cloudy
8:56 PM48.9 °F44.1 °F83 %30.19 in10.0 miNNW (330°)3.5 mphScattered Clouds
9:56 PM48.9 °F44.1 °F83 %30.19 in10.0 miWNW (290°)3.5 mphScattered Clouds
10:56 PM48.0 °F44.1 °F86 %30.18 in10.0 miNW (310°)4.6 mphClear
11:56 PM48.0 °F44.1 °F86 %30.19 in9.0 miWNW (300°)3.5 mphClear
Hourly data recorded from KSFO, located 10.72 miles away from San Francisco, California







STORIES FROM OUR PARTNERS